Laconia, NH

12:28 AM EST on December 18, 2017 (GMT -0500)
Laconia Municipal

Weather History for KLCI - May, 2014

Change the Weather History Date:

Wednesday, May 14, 2014

  Actual Average Record
Temperature  
Mean Temperature 60 °F -  
Max Temperature 71 °F 67 °F 85 °F (1985)
Min Temperature 48 °F 42 °F 31 °F (1996)
Degree Days  
Heating Degree Days 6    
Growing Degree Days 10 (Base 50)    
Moisture  
Dew Point 40 °F    
Average Humidity 56    
Maximum Humidity 82    
Minimum Humidity 35    
Precipitation  
Precipitation 0.00 in - - ()
Sea Level Pressure  
Sea Level Pressure 30.27 in    
Wind  
Wind Speed 3 mph (NNE)    
Max Wind Speed 14 mph    
Max Gust Speed 16 mph    
Visibility 10 miles    
Events      
Averages and records for this station are not official NWS values.
T = Trace of Precipitation, MM = Missing Value Source: NWS Daily Summary

Daily Weather History Graph

Daily Weather History Graph

Search for Another Location

Airport or City:

Trip Planner

Search our weather history database for the weather conditions in past years. The results will help you decide how hot, cold, wet, or windy it might be!

Date:

Astronomy

May. 14, 2014 Rise Set
Actual Time 5:21 AM EDT 8:02 PM EDT
Civil Twilight 4:49 AM EDT 8:35 PM EDT
Nautical Twilight 4:07 AM EDT 9:17 PM EDT
Astronomical Twilight 3:20 AM EDT 10:05 PM EDT
Moon 8:04 PM EDT (5/14) 5:20 AM EDT (5/14)
Length of Visible Light 15h 46m
Length of Day
14h 40m
Full, 100% of the Moon is Illuminated
May 14
Full
May 14
Full
May 21
Last Quarter
May 28
New
Jun 5
First Quarter

Hourly Weather History & Observations

Time (EDT) Temp. Dew Point Humidity Pressure Visibility Wind Dir Wind Speed Gust Speed Precip Events Conditions
12:15 AM 51.8 °F 35.6 °F 54% 30.30 in 10.0 mi Calm Calm - N/A   Overcast
12:35 AM 51.8 °F 35.6 °F 54% 30.30 in 10.0 mi Calm Calm - N/A   Overcast
12:55 AM 51.8 °F 35.6 °F 54% 30.31 in 10.0 mi Calm Calm - N/A   Overcast
1:15 AM 50.0 °F 39.2 °F 66% 30.30 in 10.0 mi Calm Calm - N/A   Overcast
1:35 AM 48.2 °F 37.4 °F 66% 30.29 in 10.0 mi Calm Calm - N/A   Overcast
1:55 AM 48.2 °F 39.2 °F 71% 30.29 in 10.0 mi Calm Calm - N/A   Overcast
2:15 AM 50.0 °F 39.2 °F 66% 30.29 in 10.0 mi Calm Calm - N/A   Overcast
2:35 AM 50.0 °F 37.4 °F 62% 30.29 in 10.0 mi Calm Calm - N/A   Mostly Cloudy
2:55 AM 50.0 °F 37.4 °F 62% 30.30 in 10.0 mi NNW 3.5 mph - N/A   Mostly Cloudy
3:15 AM 50.0 °F 37.4 °F 62% 30.30 in 10.0 mi Calm Calm - N/A   Overcast
3:35 AM 48.2 °F 37.4 °F 66% 30.29 in 10.0 mi North - - N/A   Overcast
3:55 AM 48.2 °F 37.4 °F 66% 30.28 in 10.0 mi Calm Calm - N/A   Overcast
4:15 AM 48.2 °F 39.2 °F 71% 30.28 in 10.0 mi Calm Calm - N/A   Overcast
4:35 AM 48.2 °F 41.0 °F 76% 30.27 in 10.0 mi Calm Calm - N/A   Overcast
4:55 AM 48.2 °F 39.2 °F 71% 30.28 in 10.0 mi Calm Calm - N/A   Overcast
5:15 AM 48.2 °F 39.2 °F 71% 30.29 in 10.0 mi Calm Calm - N/A   Overcast
5:35 AM 48.2 °F 39.2 °F 71% 30.28 in 10.0 mi Calm Calm - N/A   Overcast
5:55 AM 48.2 °F 39.2 °F 71% 30.28 in 10.0 mi Calm Calm - N/A   Overcast
6:15 AM 48.2 °F 39.2 °F 71% 30.28 in 10.0 mi Calm Calm - N/A   Mostly Cloudy
6:35 AM 48.2 °F 39.2 °F 71% 30.28 in 10.0 mi Calm Calm - N/A   Mostly Cloudy
6:55 AM 48.2 °F 39.2 °F 71% 30.28 in 10.0 mi Calm Calm - N/A   Scattered Clouds
7:15 AM 50.0 °F 37.4 °F 62% 30.28 in 10.0 mi Calm Calm - N/A   Clear
7:35 AM 51.8 °F 37.4 °F 58% 30.29 in 10.0 mi WSW 4.6 mph - N/A   Clear
7:55 AM 53.6 °F 33.8 °F 47% 30.31 in 10.0 mi SSW 6.9 mph - N/A   Scattered Clouds
8:15 AM 51.8 °F 33.8 °F 50% 30.31 in 10.0 mi WSW 5.8 mph - N/A   Overcast
8:35 AM 51.8 °F 35.6 °F 54% 30.32 in 10.0 mi WSW 5.8 mph - N/A   Overcast
8:55 AM 51.8 °F 35.6 °F 54% 30.32 in 10.0 mi WSW 4.6 mph - N/A   Overcast
9:15 AM 53.6 °F 35.6 °F 51% 30.31 in 10.0 mi WSW 4.6 mph - N/A   Overcast
9:35 AM 53.6 °F 35.6 °F 51% 30.31 in 10.0 mi NNE 6.9 mph - N/A   Overcast
9:55 AM 53.6 °F 37.4 °F 54% 30.30 in 10.0 mi NE 4.6 mph - N/A   Mostly Cloudy
11:15 AM 59.0 °F 37.4 °F 45% 30.28 in 10.0 mi NE 6.9 mph - N/A   Overcast
11:35 AM 59.0 °F 37.4 °F 45% 30.28 in 10.0 mi NE 5.8 mph - N/A   Overcast
11:55 AM 59.0 °F 37.4 °F 45% 30.29 in 10.0 mi ENE 6.9 mph - N/A   Overcast
12:15 PM 60.8 °F 37.4 °F 42% 30.29 in 10.0 mi ENE 5.8 mph - N/A   Overcast
12:35 PM 60.8 °F 35.6 °F 39% 30.29 in 10.0 mi East 3.5 mph - N/A   Overcast
12:55 PM 62.6 °F 35.6 °F 37% 30.28 in 10.0 mi SSW 8.1 mph - N/A   Overcast
1:15 PM 64.4 °F 37.4 °F 37% 30.27 in 10.0 mi NNE 8.1 mph - N/A   Overcast
1:35 PM 64.4 °F 37.4 °F 37% 30.27 in 10.0 mi NNE 6.9 mph - N/A   Scattered Clouds
1:55 PM 64.4 °F 37.4 °F 37% 30.26 in 10.0 mi NE 6.9 mph - N/A   Clear
2:15 PM 64.4 °F 37.4 °F 37% 30.26 in 10.0 mi NE 9.2 mph - N/A   Clear
2:35 PM 64.4 °F 39.2 °F 40% 30.25 in 10.0 mi NNE 9.2 mph - N/A   Clear
2:55 PM 66.2 °F 39.2 °F 37% 30.24 in 10.0 mi NNE 9.2 mph - N/A   Clear
3:15 PM 66.2 °F 41.0 °F 40% 30.23 in 10.0 mi NNE 6.9 mph - N/A   Clear
3:35 PM 69.8 °F 42.8 °F 38% 30.23 in 10.0 mi North 9.2 mph - N/A   Clear
3:55 PM 68.0 °F 42.8 °F 40% 30.22 in 10.0 mi NE 5.8 mph - N/A   Clear
4:15 PM 71.6 °F 44.6 °F 38% 30.22 in 4.0 mi South 8.1 mph - N/A   Clear
4:35 PM 71.6 °F 42.8 °F 35% 30.22 in 10.0 mi SSW 13.8 mph - N/A   Clear
4:55 PM 71.6 °F 42.8 °F 35% 30.21 in 10.0 mi Calm Calm - N/A   Clear
5:15 PM 71.6 °F 44.6 °F 38% 30.22 in 10.0 mi Calm Calm - N/A   Clear
5:35 PM 68.0 °F 44.6 °F 43% 30.22 in 10.0 mi SE 6.9 mph - N/A   Clear
5:55 PM 69.8 °F 44.6 °F 40% 30.22 in 10.0 mi SSE 11.5 mph 16.1 mph N/A   Clear
6:15 PM 68.0 °F 46.4 °F 46% 30.22 in 10.0 mi SSE 6.9 mph - N/A   Clear
6:35 PM 68.0 °F 46.4 °F 46% 30.23 in 10.0 mi South 4.6 mph - N/A   Clear
6:55 PM 64.4 °F 44.6 °F 49% 30.23 in 10.0 mi ENE 8.1 mph - N/A   Clear
7:15 PM 62.6 °F 44.6 °F 52% 30.23 in 10.0 mi ENE 8.1 mph - N/A   Clear
7:55 PM 60.8 °F 44.6 °F 55% 30.25 in 10.0 mi North 3.5 mph - N/A   Clear
8:15 PM 59.0 °F 44.6 °F 59% 30.25 in 10.0 mi NNW 4.6 mph - N/A   Clear
8:35 PM 57.2 °F 44.6 °F 63% 30.26 in 10.0 mi NW 4.6 mph - N/A   Clear
8:55 PM 55.4 °F 44.6 °F 67% 30.27 in 10.0 mi NNW 5.8 mph - N/A   Clear
9:15 PM 55.4 °F 44.6 °F 67% 30.28 in 10.0 mi NNW 3.5 mph - N/A   Scattered Clouds
9:35 PM 53.6 °F 44.6 °F 72% 30.28 in 10.0 mi Calm Calm - N/A   Partly Cloudy
9:55 PM 53.6 °F 44.6 °F 72% 30.28 in 10.0 mi NE 5.8 mph - N/A   Clear
10:15 PM 53.6 °F 44.6 °F 72% 30.29 in 10.0 mi NW 3.5 mph - N/A   Clear
10:35 PM 53.6 °F 44.6 °F 72% 30.28 in 10.0 mi North - - N/A   Partly Cloudy
10:55 PM 51.8 °F 44.6 °F 76% 30.28 in 10.0 mi Calm Calm - N/A   Partly Cloudy
11:15 PM 51.8 °F 44.6 °F 76% 30.29 in 10.0 mi NW 3.5 mph - N/A   Clear
11:35 PM 51.8 °F 44.6 °F 76% 30.29 in 10.0 mi Calm Calm - N/A   Clear
11:55 PM 48.2 °F 42.8 °F 82% 30.29 in 10.0 mi East 3.5 mph - N/A   Clear